Temp
82 81 80 79 79 80 79 79 79 79 78 78 78 78 78 79 80 80 80 80 80 79 79 79 79 79 79 78 78 77 77 76 76 76 75 75 75 75 75 75 74 74
82 82 81 80 78 79 78 79 79 79 79 79 79 79 79 79 80 80 80 79 79 79 79 79 79 78 78 78 77 77 76 76 76 77 75 75 75 75 75 75 75 74
82 82 81 80 80 80 81 81 80 79 79 80 80 79 79 80 80 80 79 79 78 79 79 79 79 78 78 78 77 77 76 76 75 77 76 75 75 75 75 76 74 75
81 82 81 81 81 81 81 80 79 79 79 79 80 81 80 80 79 79 79 79 78 78 79 79 78 79 78 78 77 76 77 76 76 76 76 75 75 75 75 75 75 74
81 81 81 81 82 81 81 80 80 79 80 80 81 80 80 79 79 79 78 78 78 78 78 78 79 78 78 77 77 76 76 76 76 76 75 74 74 75 75 75 73 73
82 82 81 81 81 80 80 79 80 80 80 80 79 80 80 80 79 78 78 78 79 79 79 78 78 78 78 77 77 76 76 76 76 76 75 74 74 75 75 74 73 72
81 81 81 81 81 80 79 79 80 80 80 79 80 79 80 79 79 78 78 78 78 78 78 77 77 77 77 77 76 75 76 76 76 75 74 74 74 74 75 74 73 72
81 82 81 80 80 80 79 80 79 79 80 80 79 79 80 80 79 80 79 78 78 77 77 77 77 77 78 77 76 75 75 76 76 75 74 74 74 73 73 74 73 71
81 81 81 81 80 80 81 82 81 80 79 78 80 81 81 80 80 80 79 78 77 77 77 77 77 77 77 77 75 75 75 75 75 75 74 73 73 73 73 73 72 71
81 81 81 82 81 80 81 82 83 82 81 81 81 82 80 80 80 79 79 77 77 77 77 77 77 76 76 76 76 75 75 74 75 75 74 74 74 73 73 72 72 71
81 81 81 81 81 83 83 85 85 86 83 81 80 80 80 80 80 80 79 78 78 78 77 77 77 76 73 72 74 75 75 74 75 75 74 74 74 73 74 73 72 71
81 81 81 81 81 82 83 83 83 81 81 83 82 82 81 81 79 79 79 78 78 78 77 77 77 73 72 71 72 74 75 74 74 74 75 74 74 74 74 73 72 72
81 81 81 82 81 81 82 83 83 85 85 82 81 82 81 81 80 79 79 78 78 79 79 77 77 75 73 72 72 72 72 72 72 73 72 73 74 74 75 74 74 73
82 82 81 81 81 81 82 81 81 81 80 80 80 79 81 80 81 80 79 79 78 78 78 77 76 75 73 73 72 71 70 70 71 70 69 72 73 74 74 74 74 74
81 82 82 81 81 80 80 79 80 80 79 79 79 79 79 80 80 80 78 77 78 77 77 77 76 72 74 73 71 70 70 70 71 72 73 72 72 73 73 73 73 73
81 81 81 80 80 79 79 79 80 79 79 79 78 79 78 78 78 78 80 78 78 78 77 78 71 71 72 68 68 71 72 73 74 73 72 72 71 71 72 73 74 74
79 79 80 79 79 79 79 79 79 79 78 78 77 77 77 77 77 77 79 79 78 78 77 76 70 70 66 65 66 67 70 72 73 72 72 72 72 71 70 71 72 72
79 79 79 79 79 78 78 78 79 78 77 77 77 77 77 78 77 77 77 77 77 78 77 75 71 69 63 63 64 65 67 71 73 72 72 72 72 71 71 71 71 72
79 79 79 78 78 79 78 78 78 78 78 77 78 78 78 77 77 77 76 77 77 76 75 75 74 67 63 62 63 63 64 66 71 72 71 71 71 71 71 70 70 70
79 79 79 78 79 78 78 78 78 77 78 79 79 78 77 77 77 76 76 76 76 74 74 75 74 69 63 62 62 62 62 64 70 71 71 71 71 71 71 70 70 69
79 79 78 78 79 79 78 77 77 77 78 78 79 78 77 76 76 76 76 76 77 76 75 75 76 67 61 61 60 59 59 62 68 70 70 70 70 70 71 71 69 68
80 79 78 79 78 78 77 77 77 77 77 77 77 77 77 78 77 77 76 76 76 76 76 75 78 63 60 60 58 58 59 65 68 69 69 69 68 69 70 69 68 67
80 79 78 78 79 78 77 78 77 77 77 77 76 77 77 77 76 77 76 77 76 76 75 74 76 69 61 59 58 56 62 69 69 69 69 68 68 69 69 67 67 66
80 80 79 79 78 78 78 78 79 79 78 78 77 76 77 78 77 76 76 76 77 77 78 76 76 69 56 56 57 56 60 67 69 69 69 68 67 68 68 67 67 68
81 80 80 79 78 79 79 78 78 78 79 78 78 77 77 77 77 76 76 76 79 79 75 76 76 71 57 62 58 56 60 67 68 68 67 67 67 67 68 68 68 68
81 80 79 79 79 79 79 77 78 79 79 79 78 78 77 77 77 77 76 77 78 78 79 77 76 76 72 60 57 55 56 65 68 67 66 67 67 67 67 68 70 70
MSLP
1014.64 1014.80 1015.04 1015.16 1015.20 1015.24 1015.44 1015.64 1015.60 1015.72 1015.76 1015.68 1015.80 1015.72 1015.64 1015.44 1015.32 1015.32 1015.28 1015.16 1015.16 1015.20 1015.12 1015.12 1015.08 1015.16 1015.16 1015.12 1015.08 1015.12 1015.20 1015.20 1015.20 1015.20 1015.28 1015.28 1015.24 1015.20 1015.16 1015.04 1014.96 1014.92
1014.64 1014.68 1014.84 1014.96 1015.12 1015.12 1015.20 1015.28 1015.44 1015.48 1015.56 1015.52 1015.48 1015.40 1015.28 1015.24 1015.24 1015.16 1015.20 1015.24 1015.16 1015.16 1015.04 1015.00 1015.00 1015.04 1015.04 1015.04 1015.04 1015.12 1015.12 1015.08 1015.16 1014.96 1015.16 1015.20 1015.16 1015.08 1015.04 1014.88 1014.80 1014.64
1014.52 1014.68 1014.80 1015.08 1015.16 1015.08 1015.00 1014.96 1015.08 1015.24 1015.32 1015.24 1015.16 1015.20 1015.16 1015.00 1015.08 1015.08 1015.12 1015.16 1015.20 1015.08 1015.00 1014.92 1014.92 1014.88 1014.88 1014.84 1014.88 1014.92 1015.00 1015.04 1015.08 1014.88 1014.92 1015.04 1014.88 1014.92 1014.80 1014.64 1014.60 1014.52
1014.48 1014.52 1014.64 1014.72 1014.72 1014.80 1014.84 1015.00 1015.08 1015.04 1015.00 1015.04 1015.04 1014.92 1015.00 1015.04 1015.08 1015.12 1015.04 1015.00 1015.04 1015.00 1014.88 1014.80 1014.80 1014.76 1014.72 1014.72 1014.76 1014.88 1014.84 1014.84 1014.80 1014.72 1014.84 1014.84 1014.80 1014.76 1014.64 1014.52 1014.48 1014.48
1014.36 1014.48 1014.52 1014.56 1014.52 1014.60 1014.68 1014.96 1015.04 1015.00 1014.96 1014.88 1014.80 1014.80 1014.84 1014.96 1015.04 1015.04 1015.04 1014.96 1014.88 1014.88 1014.76 1014.68 1014.60 1014.60 1014.56 1014.60 1014.64 1014.80 1014.72 1014.76 1014.64 1014.64 1014.84 1014.92 1014.76 1014.68 1014.56 1014.52 1014.60 1014.56
1014.16 1014.24 1014.36 1014.52 1014.56 1014.64 1014.84 1014.96 1014.88 1014.84 1014.88 1014.88 1014.84 1014.64 1014.72 1014.72 1014.88 1014.96 1014.96 1014.96 1014.84 1014.76 1014.72 1014.64 1014.60 1014.52 1014.44 1014.48 1014.52 1014.60 1014.56 1014.60 1014.52 1014.52 1014.64 1014.72 1014.64 1014.48 1014.44 1014.48 1014.48 1014.48
1014.24 1014.32 1014.44 1014.44 1014.52 1014.56 1014.76 1014.80 1014.72 1014.68 1014.56 1014.48 1014.36 1014.52 1014.48 1014.60 1014.68 1014.72 1014.72 1014.76 1014.76 1014.72 1014.68 1014.68 1014.64 1014.60 1014.44 1014.40 1014.48 1014.52 1014.36 1014.36 1014.32 1014.32 1014.44 1014.44 1014.40 1014.40 1014.28 1014.28 1014.32 1014.36
1014.12 1014.16 1014.28 1014.36 1014.48 1014.52 1014.64 1014.60 1014.60 1014.44 1014.20 1014.12 1014.28 1014.20 1014.16 1014.28 1014.32 1014.36 1014.40 1014.48 1014.56 1014.60 1014.56 1014.52 1014.48 1014.44 1014.32 1014.28 1014.40 1014.44 1014.40 1014.24 1014.24 1014.20 1014.28 1014.28 1014.24 1014.36 1014.24 1014.12 1014.12 1014.24
1013.88 1014.08 1014.16 1014.24 1014.36 1014.40 1014.44 1014.36 1014.24 1014.04 1013.88 1014.04 1014.04 1013.92 1013.80 1013.88 1013.96 1014.00 1014.08 1014.20 1014.32 1014.36 1014.36 1014.36 1014.32 1014.28 1014.16 1014.20 1014.28 1014.32 1014.36 1014.28 1014.08 1014.08 1014.12 1014.16 1014.20 1014.20 1014.12 1014.00 1014.08 1014.12
1013.80 1013.92 1014.04 1014.12 1014.32 1014.28 1014.32 1014.16 1013.88 1013.72 1013.52 1013.64 1013.68 1013.64 1013.64 1013.60 1013.60 1013.68 1013.72 1013.88 1014.00 1014.08 1014.08 1014.12 1014.16 1014.20 1014.20 1014.16 1014.16 1014.16 1014.20 1014.16 1014.00 1013.88 1013.88 1013.88 1013.92 1013.92 1013.92 1013.92 1013.96 1014.00
1013.64 1013.76 1014.00 1014.08 1014.04 1013.92 1013.88 1013.68 1013.56 1013.36 1013.36 1013.56 1013.52 1013.56 1013.56 1013.52 1013.44 1013.36 1013.48 1013.56 1013.72 1013.72 1013.76 1013.84 1013.92 1014.04 1014.20 1014.24 1014.24 1014.08 1014.00 1013.96 1013.84 1013.80 1013.76 1013.68 1013.64 1013.64 1013.64 1013.64 1013.72 1013.76
1013.44 1013.56 1013.72 1013.76 1013.80 1013.80 1013.72 1013.60 1013.52 1013.52 1013.52 1013.32 1013.36 1013.56 1013.48 1013.40 1013.40 1013.32 1013.36 1013.36 1013.32 1013.32 1013.36 1013.52 1013.56 1013.92 1014.04 1014.16 1014.20 1014.08 1013.84 1013.76 1013.76 1013.76 1013.60 1013.56 1013.48 1013.48 1013.40 1013.32 1013.44 1013.40
1013.12 1013.32 1013.40 1013.40 1013.44 1013.52 1013.48 1013.48 1013.48 1013.36 1013.24 1013.44 1013.44 1013.44 1013.48 1013.48 1013.36 1013.32 1013.16 1013.16 1013.16 1013.12 1013.16 1013.28 1013.36 1013.56 1013.60 1013.72 1013.88 1013.80 1013.76 1013.80 1013.80 1013.80 1013.76 1013.68 1013.48 1013.36 1013.20 1013.12 1013.04 1013.04
1012.68 1012.84 1013.00 1013.08 1013.12 1013.16 1013.24 1013.32 1013.36 1013.36 1013.40 1013.36 1013.40 1013.60 1013.52 1013.36 1013.24 1013.16 1013.04 1013.00 1013.04 1013.04 1013.00 1013.00 1013.12 1013.24 1013.44 1013.56 1013.60 1013.72 1013.80 1013.84 1013.80 1013.80 1013.92 1013.64 1013.32 1013.20 1013.04 1012.92 1012.84 1012.76
1012.36 1012.48 1012.60 1012.76 1012.92 1013.08 1013.24 1013.32 1013.32 1013.28 1013.32 1013.36 1013.40 1013.40 1013.32 1013.16 1012.96 1012.88 1012.96 1013.00 1012.88 1012.84 1012.80 1012.80 1012.96 1013.68 1013.56 1013.44 1013.60 1013.56 1013.44 1013.52 1013.48 1013.40 1013.32 1013.24 1013.16 1013.00 1012.84 1012.72 1012.60 1012.52
1012.24 1012.36 1012.52 1012.60 1012.80 1013.00 1013.04 1013.04 1013.08 1013.12 1013.16 1013.20 1013.24 1013.16 1013.12 1013.00 1012.88 1012.80 1012.76 1012.72 1012.72 1012.64 1012.64 1012.68 1013.24 1013.16 1013.12 1013.20 1013.08 1013.16 1013.24 1013.20 1013.08 1013.04 1013.08 1013.04 1013.00 1012.88 1012.72 1012.52 1012.40 1012.32
1012.12 1012.32 1012.36 1012.60 1012.68 1012.76 1012.80 1012.84 1012.88 1012.88 1012.96 1012.96 1013.00 1013.00 1012.96 1012.84 1012.76 1012.72 1012.56 1012.48 1012.56 1012.60 1012.56 1012.64 1012.96 1012.76 1012.88 1012.96 1012.92 1012.92 1013.08 1012.96 1012.88 1012.84 1012.76 1012.76 1012.72 1012.72 1012.68 1012.44 1012.24 1012.12
1011.92 1012.04 1012.28 1012.40 1012.44 1012.56 1012.56 1012.56 1012.60 1012.68 1012.76 1012.72 1012.72 1012.80 1012.68 1012.52 1012.56 1012.48 1012.40 1012.32 1012.28 1012.24 1012.28 1012.44 1012.64 1012.52 1012.68 1012.76 1012.72 1012.64 1012.64 1012.64 1012.60 1012.60 1012.52 1012.48 1012.44 1012.40 1012.32 1012.20 1012.12 1012.00
1011.56 1011.80 1012.00 1012.12 1012.16 1012.16 1012.20 1012.28 1012.40 1012.52 1012.52 1012.52 1012.52 1012.36 1012.28 1012.40 1012.36 1012.28 1012.24 1012.08 1012.04 1012.16 1012.28 1012.20 1012.20 1012.20 1012.32 1012.28 1012.32 1012.40 1012.44 1012.56 1012.52 1012.40 1012.36 1012.28 1012.20 1012.12 1012.00 1011.96 1011.92 1011.96
1011.28 1011.48 1011.68 1011.72 1011.72 1011.80 1011.92 1012.08 1012.20 1012.32 1012.24 1012.08 1012.04 1012.04 1012.16 1012.12 1012.04 1012.08 1012.00 1011.92 1011.88 1012.04 1012.04 1011.92 1011.84 1011.76 1011.88 1011.96 1012.04 1012.12 1012.20 1012.36 1012.40 1012.28 1012.12 1012.08 1012.00 1011.92 1011.84 1011.80 1011.76 1011.80
1010.92 1011.08 1011.28 1011.32 1011.40 1011.52 1011.72 1011.88 1011.96 1011.96 1011.92 1011.88 1011.88 1011.92 1011.96 1011.92 1011.84 1011.84 1011.76 1011.72 1011.72 1011.76 1011.76 1011.76 1011.48 1011.36 1011.56 1011.68 1011.76 1011.92 1012.00 1012.24 1012.20 1012.04 1011.92 1011.88 1011.84 1011.76 1011.64 1011.56 1011.56 1011.56
1010.44 1010.68 1010.84 1010.96 1011.16 1011.32 1011.56 1011.72 1011.72 1011.68 1011.72 1011.64 1011.68 1011.68 1011.56 1011.52 1011.48 1011.48 1011.60 1011.56 1011.48 1011.44 1011.44 1011.48 1011.20 1011.20 1011.32 1011.40 1011.64 1011.84 1011.96 1011.96 1011.80 1011.72 1011.64 1011.68 1011.68 1011.64 1011.44 1011.36 1011.36 1011.28
1010.04 1010.36 1010.60 1010.72 1010.84 1011.12 1011.32 1011.40 1011.44 1011.44 1011.40 1011.32 1011.60 1011.52 1011.52 1011.48 1011.40 1011.36 1011.20 1011.20 1011.20 1011.16 1011.24 1011.24 1011.12 1011.04 1011.20 1011.40 1011.64 1011.76 1011.72 1011.56 1011.44 1011.36 1011.36 1011.48 1011.52 1011.40 1011.24 1011.24 1011.20 1011.08
1009.72 1010.00 1010.32 1010.48 1010.64 1010.92 1011.04 1011.04 1010.96 1010.96 1011.04 1011.00 1011.32 1011.36 1011.28 1011.08 1010.96 1010.96 1010.80 1010.76 1010.76 1010.76 1010.76 1010.96 1010.88 1010.84 1011.16 1011.36 1011.48 1011.56 1011.56 1011.52 1011.32 1011.24 1011.24 1011.32 1011.32 1011.12 1011.00 1010.92 1010.76 1010.56
1009.32 1009.56 1009.84 1010.08 1010.36 1010.48 1010.56 1010.64 1010.68 1010.64 1010.56 1010.60 1010.76 1010.88 1010.84 1010.68 1010.64 1010.72 1010.64 1010.44 1010.24 1010.20 1010.24 1010.52 1010.64 1010.64 1010.96 1011.00 1011.20 1011.52 1011.60 1011.44 1011.24 1011.20 1011.28 1011.24 1011.08 1010.96 1010.72 1010.56 1010.32 1010.04
1008.92 1009.16 1009.40 1009.68 1009.92 1010.00 1010.04 1010.24 1010.24 1010.24 1010.32 1010.44 1010.48 1010.52 1010.60 1010.52 1010.44 1010.44 1010.44 1010.20 1009.88 1009.92 1009.96 1010.12 1010.32 1010.44 1010.60 1010.96 1011.28 1011.48 1011.52 1011.32 1011.12 1011.20 1011.24 1011.12 1011.00 1010.88 1010.68 1010.28 1009.96 1009.72
Wind_Speed
3 3 3 1 2 1 2 2 2 2 3 3 3 3 4 3 3 3 4 3 3 3 3 3 2 2 3 2 2 2 2 3 4 3 4 5 5 6 6 6 6 5
4 3 3 1 1 2 1 3 4 2 2 3 3 3 3 3 3 3 3 3 4 4 3 3 3 3 3 2 3 3 3 3 3 2 3 4 4 5 6 6 5 4
3 3 4 4 4 5 5 2 1 2 3 3 2 4 4 3 3 3 3 3 4 4 4 3 3 3 3 3 2 3 3 3 3 3 3 3 3 4 4 5 5 5
5 4 3 4 3 2 1 2 3 3 4 4 2 2 3 4 4 5 4 5 4 4 4 4 4 3 3 3 3 3 3 3 3 3 2 3 4 4 5 4 4 4
5 4 3 3 2 2 2 2 3 3 4 3 3 3 2 2 3 4 4 4 4 4 4 4 4 4 3 3 3 4 3 3 3 2 2 3 3 3 4 4 4 5
4 3 4 3 3 2 2 4 4 3 3 5 4 3 3 2 3 3 4 5 5 5 5 5 4 4 4 3 3 4 3 3 3 3 3 3 3 3 3 3 4 5
4 4 4 4 4 4 4 4 3 4 4 5 4 3 3 4 4 4 4 4 5 5 5 5 5 5 4 3 3 4 3 3 3 3 4 4 3 3 3 3 3 4
5 5 5 4 5 5 5 4 4 6 5 3 5 5 4 4 4 3 3 4 4 5 5 6 5 5 5 4 3 4 4 4 4 3 4 4 3 4 3 3 3 4
5 5 5 5 5 4 6 6 7 8 9 8 5 3 3 3 3 3 3 4 5 5 5 5 5 5 4 4 4 5 5 5 5 4 4 4 4 3 4 3 4 4
5 4 5 6 7 5 7 7 6 5 5 5 5 4 4 3 3 5 5 5 5 5 5 4 4 5 5 4 5 5 5 6 6 5 5 5 4 3 4 3 4 4
6 6 6 6 5 5 6 7 8 6 2 4 3 4 4 5 4 3 3 4 5 4 4 4 5 2 3 5 6 6 6 6 6 5 5 5 4 3 4 3 3 4
6 6 7 7 7 6 6 5 4 4 5 7 2 4 3 4 4 4 4 4 3 4 4 4 3 3 3 3 5 7 6 6 6 7 6 5 5 5 4 3 3 4
8 7 6 6 5 4 4 5 6 6 6 6 5 6 7 6 6 6 4 4 5 4 3 3 2 4 4 4 5 6 5 6 7 8 9 8 5 6 6 6 5 4
6 6 6 5 4 3 3 3 3 3 2 3 4 6 8 7 7 5 5 5 6 5 4 4 4 5 5 4 4 3 5 6 6 4 7 9 6 6 6 6 5 5
4 4 4 4 4 4 4 4 4 3 3 4 4 5 6 7 6 6 5 6 6 6 5 5 2 4 3 2 3 5 5 6 7 7 7 7 6 7 7 6 5 6
4 4 4 4 4 5 5 4 4 4 5 4 5 6 5 6 6 5 7 7 5 4 4 3 6 1 4 6 7 5 6 6 6 5 6 6 6 6 7 7 6 6
6 6 5 5 5 5 4 5 5 5 5 5 5 6 6 5 6 7 7 5 6 6 6 0 3 2 6 9 10 12 8 8 6 6 6 6 6 6 6 7 6 6
7 7 7 7 6 6 6 6 5 5 6 6 5 6 6 6 5 5 4 5 5 6 4 2 3 5 7 8 11 13 11 7 6 5 6 6 5 6 6 6 7 7
7 8 8 7 7 7 6 6 6 6 6 6 6 6 5 5 4 4 5 4 5 3 2 3 4 8 10 9 9 11 12 9 6 7 6 7 6 6 6 6 6 6
8 8 8 8 7 7 6 6 6 6 6 6 5 4 4 5 5 5 5 5 3 3 4 4 5 8 10 10 10 11 12 9 7 8 7 7 7 7 6 6 6 6
10 10 9 8 7 6 6 6 6 6 6 5 5 5 5 4 5 4 3 4 4 4 4 5 5 9 11 10 10 10 10 7 6 7 6 6 6 7 7 6 4 4
11 10 9 8 7 6 6 6 7 7 6 5 5 5 5 5 4 4 5 5 6 6 5 5 6 9 11 10 6 4 5 4 5 6 6 5 5 6 6 3 4 4
10 9 8 7 7 7 7 7 6 6 6 5 6 5 6 6 5 6 6 6 6 6 5 4 5 5 6 4 4 1 2 4 5 6 5 5 5 6 5 4 4 5
8 8 7 7 7 7 6 5 5 4 5 4 6 7 7 7 6 5 6 6 7 7 8 7 6 3 8 8 6 4 2 4 4 5 4 4 5 6 6 6 7 11
8 8 7 7 7 7 6 6 5 5 4 4 5 6 6 5 6 6 6 7 9 9 6 5 6 5 10 4 3 4 2 4 4 4 4 5 5 6 6 5 7 8
7 7 7 6 7 6 5 4 4 4 4 4 4 5 6 6 6 6 8 7 8 7 6 6 7 5 2 3 3 4 2 2 3 4 5 5 6 7 6 6 6 4
Wind_Direction
183 165 219 202 235 292 341 303 284 299 305 294 302 318 320 323 318 299 302 306 317 305 305 309 320 310 298 297 321 303 298 309 308 322 319 311 307 315 310 313 314 319
183 203 188 209 188 199 205 218 239 249 300 294 283 295 307 315 298 289 308 316 304 307 312 314 304 307 303 308 306 301 286 285 301 321 303 305 312 302 308 314 319 318
193 206 188 201 221 221 213 227 309 291 260 277 298 268 253 263 295 328 315 302 295 294 296 298 303 290 295 293 298 296 292 299 304 299 277 286 282 289 297 309 313 319
189 207 202 216 226 245 212 247 249 229 245 240 265 336 339 320 311 299 296 301 299 293 296 288 281 284 281 298 300 299 303 297 281 286 317 324 315 308 303 303 313 329
190 182 210 234 222 220 229 252 282 287 279 297 300 274 274 282 289 300 301 298 297 294 286 292 292 287 281 278 294 289 286 296 289 303 292 280 278 293 304 319 327 315
178 187 187 203 211 229 219 224 237 274 296 289 282 292 282 301 289 281 288 295 295 297 295 289 295 297 291 283 284 284 285 281 283 280 282 281 287 288 301 301 303 306
182 184 200 201 215 213 218 232 238 239 247 245 239 239 250 250 250 250 261 272 281 284 292 294 293 291 287 281 265 267 271 274 279 277 281 285 280 292 296 296 305 313
193 193 199 204 213 210 216 223 233 243 234 237 234 226 219 238 245 260 259 262 276 285 287 290 285 288 291 287 279 274 280 274 274 281 284 285 295 303 311 309 318 318
196 201 205 210 215 218 230 229 232 229 224 229 234 243 230 229 243 244 240 249 257 265 275 281 286 285 289 297 294 288 281 286 283 284 285 288 294 307 311 319 315 324
189 210 216 216 216 216 229 242 261 281 264 241 213 232 238 232 244 246 239 236 243 253 258 270 286 288 291 307 306 301 297 285 281 279 285 288 292 306 310 307 311 314
192 203 213 220 240 245 245 243 246 262 9 335 288 281 282 257 236 237 248 234 233 241 245 254 272 326 337 310 307 302 289 285 288 289 281 283 286 292 293 289 303 301
194 206 213 216 218 225 241 269 311 324 278 265 281 306 306 316 311 302 289 275 261 250 256 255 257 142 242 268 290 294 298 298 295 288 284 287 295 300 291 290 285 277
189 197 210 224 216 218 237 242 246 262 285 337 330 315 323 318 303 282 284 303 297 294 290 303 265 195 224 262 268 276 294 307 309 308 316 306 301 293 292 289 283 286
190 192 197 205 223 242 230 238 262 282 302 313 326 304 287 286 289 298 310 313 315 308 307 288 269 197 201 219 255 311 307 295 288 277 269 272 283 287 283 280 282 278
180 195 191 193 204 203 212 227 235 239 246 248 255 277 272 274 284 295 298 290 281 277 275 281 279 347 281 226 211 232 236 254 259 265 276 284 284 286 283 276 269 265
188 194 193 196 202 207 214 219 223 218 235 238 242 257 271 261 268 280 284 275 277 288 289 310 72 223 249 243 247 237 247 262 264 272 278 280 280 280 281 278 275 276
187 193 197 200 205 216 215 222 223 229 233 232 231 240 258 270 258 259 273 293 291 284 278 23 154 213 242 261 264 261 253 250 256 267 273 275 281 286 287 290 285 278
189 193 196 201 207 211 215 214 225 231 234 235 233 237 241 247 258 256 261 263 267 267 274 151 183 233 235 245 250 249 241 247 256 263 270 274 278 283 283 291 290 288
191 197 197 203 204 209 208 218 224 230 238 240 242 240 239 246 255 256 258 266 267 279 266 244 212 207 224 238 244 248 252 250 258 262 266 272 276 281 289 289 299 298
197 198 203 202 205 203 208 219 224 235 244 252 254 249 241 237 243 260 264 258 249 206 238 234 241 215 213 229 242 248 251 248 254 262 268 277 285 293 289 292 289 301
196 200 201 202 200 204 210 218 229 230 236 238 246 246 245 234 234 253 270 269 239 229 229 236 242 198 199 217 230 242 257 258 259 261 266 274 286 294 292 293 305 294
196 197 197 196 197 202 210 223 225 228 228 230 234 243 247 257 249 244 254 259 252 249 255 249 265 181 199 211 213 238 246 239 240 245 249 255 274 283 278 279 278 271
195 196 195 195 197 202 215 223 229 229 228 216 238 240 245 244 242 242 239 247 253 248 237 242 262 218 197 157 143 171 215 248 239 241 242 245 258 266 270 264 262 248
190 196 194 195 196 209 217 229 232 243 241 216 230 239 243 243 244 247 245 244 252 255 257 260 256 203 154 168 166 141 241 264 260 254 250 262 268 265 261 253 256 255
191 189 198 195 201 205 213 221 224 228 235 215 227 241 249 255 253 262 264 253 256 264 253 225 256 228 167 171 121 135 205 268 267 267 267 260 263 270 264 256 266 262
191 192 190 200 205 208 201 218 238 238 249 261 264 253 249 248 247 254 257 249 250 252 259 241 259 270 106 106 91 103 164 258 263 272 281 283 284 279 278 272 266 276